Location: Friaudour
(46.0460°N, 1.2873°E)
Time: 20:45:54
(UTC+00:00)

Meteor 1-11 Rocket - Pass Details

Date: 14 July 2020
Orbit: 832 x 915 km, 81.2° (Epoch: 14 August)

Event Time Altitude Azimuth Distance (km) Brightness Sun altitude
Exits shadow 02:04:14 22° 178° (S) 1,750 4.9 -16.8°
Maximum altitude 02:07:52 72° 98° (E) 875 3.8 -16.5°
Drops below altitude 10° 02:13:23 10° 15° (NNE) 2,453 7.3 -16.0°
Sets 02:15:48 0° 13° (NNE) 3,395 8.3 -15.7°
